This is the latest recevied weather packets stored in our database for station/object EA5DFV. If no packets are shown the sender has not sent any weather packets the latest 1 day(s).
| Time | Temp. | Humidity | Pressure | Rain* | Wind** | Luminosity | Snow |
|---|---|---|---|---|---|---|---|
| 1778050713 | 17.22° C | 79% | 1011.5 hPa | 0 mm | - | 158 W/m² | - |
| 1778050107 | 16.67° C | 79% | 1011.5 hPa | 0 mm | - | 105 W/m² | - |
| 1778049800 | 16.67° C | 79% | 1011.6 hPa | 0 mm | - | 97 W/m² | - |
| 1778048009 | 16.67° C | 79% | 1011.6 hPa | 0 mm | - | 69 W/m² | - |
| 1778047397 | 16.11° C | 79% | 1011.5 hPa | 0 mm | - | 62 W/m² | - |
| 1778046798 | 16.11° C | 80% | 1011.4 hPa | 0 mm | - | 62 W/m² | - |
| 1778045898 | 16.11° C | 81% | 1011.3 hPa | 0 mm | - | 46 W/m² | - |
| 1778045303 | 16.11° C | 81% | 1011.2 hPa | 0 mm | - | 21 W/m² | - |
| 1778044704 | 16.11° C | 82% | 1011.1 hPa | 0 mm | - | 14 W/m² | - |
| 1778044108 | 16.11° C | 82% | 1011.1 hPa | 0 mm | - | 5 W/m² | - |
| 1778043512 | 16.11° C | 82% | 1011 hPa | 0 mm | - | 0 W/m² | - |
| 1778043203 | 16.11° C | 82% | 1011 hPa | 0 mm | - | 0 W/m² | - |
| 1778042900 | 16.11° C | 82% | 1011 hPa | 0 mm | - | 0 W/m² | - |
| 1778042611 | 16.11° C | 82% | 1010.9 hPa | 0 mm | - | 0 W/m² | - |
| 1778042301 | 16.11° C | 82% | 1010.8 hPa | 0 mm | - | 0 W/m² | - |
| 1778042014 | 16.11° C | 82% | 1010.8 hPa | 0 mm | - | 0 W/m² | - |
| 1778041704 | 16.11° C | 83% | 1010.7 hPa | 0 mm | - | 0 W/m² | - |
| 1778041418 | 16.11° C | 83% | 1010.8 hPa | 0 mm | - | 0 W/m² | - |
| 1778041109 | 16.11° C | 83% | 1010.7 hPa | 0 mm | - | 0 W/m² | - |
| 1778040799 | 16.11° C | 83% | 1010.8 hPa | 0 mm | - | 0 W/m² | - |
| 1778040497 | 16.11° C | 83% | 1010.8 hPa | 0 mm | - | 0 W/m² | - |
| 1778040200 | 16.11° C | 83% | 1010.6 hPa | 0 mm | - | 0 W/m² | - |
| 1778039914 | 15.56° C | 83% | 1010.6 hPa | 0 mm | - | 0 W/m² | - |
| 1778039295 | 15.56° C | 82% | 1010.7 hPa | 0 mm | - | 0 W/m² | - |
| 1778039008 | 16.11° C | 82% | 1010.7 hPa | 0 mm | - | 0 W/m² | - |
* Rain latest hour (hover to see other rain measurements)
** Current wind speed in m/s (hover to see current wind gust speed)